Voltar ao catálogo

STARLINK-36193

AtivoComunicaçõesVLEO
NORAD 67099·PAYLOAD·🇺🇸 United States

Lançado Dec 14, 2025 de Vandenberg Space Force Base

Loading…

Próximas Passagens (próximas 24 horas)

TLE

AtualizadoSource: CelesTrak SupGP

Época: Sep 15, 2026, 04:06 UTC

1 67099C 25298AA  26258.17131944 -.00037829  00000+0 -31700-2 0  2581
2 67099  69.9993 256.5918 0003967 265.5767  70.9725 14.98349032    11

Acompanhe STARLINK-36193 em tempo real com AllMySat

Download on the App Store